Regional Weather Roundup
Issued by NWS

Home | Current Version | Previous Version | Text Only | Print | Product List | Glossary Off
Versions: 1 2 3 4 5 6 7 8 9 10 11 12 13 14 15 16 17 18 19 20 21 22 23 24 25 26 27 28 29 30 31 32 33 34 35 36 37 38 39 40 41 42 43 44 45 46 47 48 49 50

000
ASUS43 KDTX 151301
RWRMI
MICHIGAN HOURLY REGIONAL WEATHER ROUNDUP
NATIONAL WEATHER SERVICE DETROIT/PONTIAC MI
800 AM EST FRI DEC 15 2017

NOTE: "FAIR" INDICATES FEW OR NO CLOUDS BELOW 12,000 FEET WITH NO
SIGNIFICANT WEATHER AND/OR OBSTRUCTION TO VISIBILITY.

MIZ047>049-052>055-059>063-066>070-074>076-081>083-151400-
SOUTHEAST LOWER MICHIGAN

CITY           SKY/WX    TMP DP  RH WIND       PRES   REMARKS
ADRIAN         CLOUDY    16  10  77 SW6       29.91F WCI   7
ANN ARBOR      CLOUDY    17  10  74 S7        29.89F WCI   8
BAD AXE        FLURRIES  17  13  87 S8        29.85F WCI   6
CARO           FLURRIES  19  15  86 S8        29.84F WCI   9
DETROIT CITY   CLOUDY    21  11  65 SW15G21   29.92F WCI   8
DETROIT        CLOUDY    21  10  62 S6        29.92F WCI  13
FLINT          CLOUDY    19  12  74 S10       29.86F WCI   7
GROSSE ILE     CLOUDY    24  15  68 SW13G18   29.92F WCI  12
HILLSDALE      CLOUDY    19  14  79 S8        29.86F WCI   9
HOWELL         CLOUDY    20  14  77 S7        29.85F WCI  11

CITY           SKY/WX    TMP DP  RH WIND       PRES   REMARKS
JACKSON        CLOUDY    21  11  65 S12       29.87F WCI   9
LAMBERTVILLE   CLOUDY    22  13  67 S9        29.93F WCI  12
LANSING        CLOUDY    20  14  77 S9        29.85F WCI   9
LAPEER         CLOUDY    19  14  82 S7        29.86F WCI  10
MASON          CLOUDY    21  11  66 SW3       29.86S
MONROE         CLOUDY    22  10  60 S8        29.92F WCI  13
MT. CLEMENS    CLOUDY    20  12  71 SW12      29.89F WCI   8
PONTIAC        CLOUDY    18  13  80 S7        29.85F WCI   9
PORT HOPE        N/A     18  13  80 SW7       29.84F WCI   9
PORT HURON     CLOUDY    18  10  73 SW5       29.90F WCI  11
TRI CITIES     LGT SNOW  19  17  92 S10       29.83F FOG     WCI   7
MIDLAND        LGT SNOW  20  17  88 S6        29.81F WCI  12
TROY           CLOUDY    20  11  67 S9        29.91F WCI   9
SAGINAW HB     FLURRIES  21  18  86 S10       29.84F WCI  10
$$
MIZ043>046-050>051-056>058-064>065-071>073-077>080-151400-
SOUTHWEST LOWER MICHIGAN

CITY           SKY/WX    TMP DP  RH WIND       PRES   REMARKS
BATTLE CREEK   CLOUDY    20  13  74 SW15      29.85F WCI   6
BENTON HARBOR  CLOUDY    27  19  72 W22       29.88S WCI  13
BIG RAPIDS     LGT SNOW  20  18  91 CALM      29.76S VSB 1
COLDWATER      CLOUDY    21  13  71 SW7       29.88F WCI  13
HOLLAND        MIX PCPN  28  21  75 W16       29.83F WCI  16
GRAND RAPIDS   FLURRIES  22  17  81 S13       29.81F WCI  10
IONIA          FLURRIES  22  16  78 S14G21    29.81F WCI   9
KALAMAZOO      CLOUDY    22  13  68 SW15      29.86F WCI   9
LUDINGTON      LGT SNOW  23  20  88 W10G16    29.79S WCI  12
MARSHALL       CLOUDY    20  11  69 SW9       29.86F WCI   9
MOUNT PLEASANT LGT SNOW  21  17  84 S6        29.78F WCI  13
MUSKEGON       LGT SNOW  28  19  69 W14       29.81S WCI  17
SOUTH HAVEN    CLOUDY    29  21  71 W15G22    29.85S WCI  18
$$
MIZ016>042-151400-
NORTHERN LOWER MICHIGAN

CITY           SKY/WX    TMP DP  RH WIND       PRES   REMARKS
ALPENA         LGT SNOW  19  17  92 S9        29.77F FOG     WCI   8
BEAVER ISLAND  LGT SNOW  23  21  91 W6        29.72S WCI  16
BELLAIRE       LGT SNOW  22  21  98 S6        29.74F WCI  14
CADILLAC       LGT SNOW  18  17  93 S6        29.71S VSB 1   WCI  10
CHARLEVOIX     LGT SNOW  25  22  91 SW8       29.73F WCI  16
FRANKFORT      FLURRIES  25  17  71 W18G26    29.75F WCI  11
GAYLORD        LGT SNOW  17  14  88 S8        29.69F VSB 1   WCI   7
GRAYLING       LGT SNOW  19  15  86 S6        29.72F WCI  10
HARBOR SPRINGS LGT SNOW  22  21  96 SW10G18   29.70S VSB 1   WCI  11
HOUGHTON LAKE  LGT SNOW  18  15  88 S9        29.73F FOG     WCI   7
MANISTEE       LGT SNOW  23  20  88 W15       29.77S FOG     WCI  10
OSCODA         LGT SNOW  19  15  85 SW8       29.81F WCI   9
PELLSTON       LGT SNOW  21  19  92 CALM      29.70F FOG
ROGERS CITY    LGT SNOW  20  17  88 S12       29.74F WCI   7
TRAVERSE CITY  LGT SNOW  22  19  89 SW5       29.74F FOG     WCI  16
$$
MIZ007>008-015-151400-
EASTERN UPPER MICHIGAN

CITY           SKY/WX    TMP DP  RH WIND       PRES   REMARKS
KINROSS        LGT SNOW  16  14  92 CALM      29.71F FOG
MACKINAC ISLAN LGT SNOW  23  19  87 N3        29.70F
NEWBERRY       MOCLDY    12  11  96 S5        29.68F WCI   4
S. S. MARIE    LGT SNOW  17  13  84 E5        29.70F FOG     WCI  10
MUNISING         N/A     17  15  92 SW8       29.70F WCI   7
$$
MIZ004>006-011>014-085-151400-
CENTRAL UPPER MICHIGAN

CITY           SKY/WX    TMP DP  RH WIND       PRES   REMARKS
MANISTIQUE     CLEAR     13   9  81 W3        29.72S
ESCANABA       PTCLDY    14  10  84 W8        29.75S WCI   3
MENOMINEE      CLOUDY    16  11  80 W7        29.80S WCI   6
SAWYER-GWINN   CLOUDY    12  10  92 W7        29.70S WCI   2
$$
MIZ001>003-009>011-084-151400-
WESTERN UPPER MICHIGAN

CITY           SKY/WX    TMP DP  RH WIND       PRES   REMARKS
IRON MOUNTAIN  MOCLDY    12   7  80 W8        29.73S WCI   0
HOUGHTON       LGT SNOW  18  10  71 NW9       29.72S WCI   7
COPPER HARBOR    N/A     22  18  85 N21       29.72S WCI   6
IRONWOOD       LGT SNOW N/A N/A N/A W12       29.80S
$$

ABBREVIATIONS USED IN REMARKS
   TC - TEMPERATURE IN CELSIUS
  WCI - WIND CHILL INDEX
   HX - HEAT INDEX
  VSB - VISIBILITY





USA.gov is the U.S. government's official web portal to all federal, state and local government web resources and services.